Weather in Karasi

Russia / Kurgan Oblast     55°25′49″N   64°10′40″E
temp.,
°C
wind,
m/s
gust,
m/s
humid.,
%
clouds,
%
prec.,
mm/h
press.,
hPa
HPBL,
m
20 june, sun
sun2023:00+14w41093100 0.5 1012393
02:00+13wsw51095100 0.1 1009365
05:00+14wsw3999100 1.8 1007364
08:00+18wnw8128886 0.3 1005852
11:00+21nw10145898 0.4 10061877
14:00+21nnw1014375 0.0 10072343
17:00+19nw916410 0.0 10092596
20:00+15nnw1016413 0.0 1010973
21 june, mon
mon2123:00+14nnw101741100 0.0 10121589
02:00+11nnw1017555 0.0 10131150
05:00+10nnw9175583 0.0 1015886
08:00+12nnw1015585 0.0 10171033
11:00+13n81363100 0.0 10191286
14:00+16n7857100 0.0 10201554
17:00+17nnw455385 0.0 10201569
20:00+15nw3569100 0.0 1020199
22 june, tue
tue2223:00+13wnw2269100 0.0 102029
02:00+13w3764100 0.0 1019185
05:00+13nw2661100 0.0 1019160
08:00+14nnw016145 0.0 1018201
11:00+18ene115294 0.0 10171042
14:00+17ne225996 0.2 1017643
17:00+19n335765 0.2 1017902
20:00+16ne246915 0.0 1017124
23 june, wed
wed2323:00+12ene1179100 0.0 101710
02:00+12nne3480100 0.0 1018102
05:00+11n3580100 0.0 1018139
08:00+14nne3665100 0.0 1018384
11:00+18nne454317 0.0 10182070
14:00+20n663984 0.0 10182518
17:00+19nnw664337 0.0 10191719
20:00+16n47595 0.0 1019202
24 june, thu
thu2423:00+12nne226276 0.0 102013
02:00+13ese225698 0.0 102038
05:00+11nne22655 0.0 102117
08:00+15ne34515 0.0 1021559
11:00+19n464112 0.0 10212212
14:00+20n553774 0.0 10202390
17:00+20n46385 0.0 10202289
20:00+18ene015478 0.0 102011